Regional Weather Roundup
Issued by NWS Little Rock, AR

Home | Current Version | Previous Version | Text Only | Print | Product List | Glossary On
Versions: 1 2 3 4 5 6 7 8 9 10 11 12 13 14 15 16 17 18 19 20 21 22 23 24 25 26 27 28 29 30 31 32
000
ASUS44 KLZK 152005
RWRLZK

WEATHER ROUNDUP FOR ARKANSAS
NATIONAL WEATHER SERVICE LITTLE ROCK AR
200 PM CST FRI DEC 15 2017

NOTE: "FAIR" INDICATES FEW OR NO CLOUDS BELOW 12,000 FEET WITH NO
SIGNIFICANT WEATHER AND/OR OBSTRUCTIONS TO VISIBILITY.

ARZ001-003-010-029-152100-
NORTHWEST ARKANSAS

CITY           SKY/WX    TMP DP  RH WIND       PRES   REMARKS
FAYETTEVILLE   PTSUNNY   47  30  51 NW7       30.15F
FORT SMITH     SUNNY     52  29  41 W12G18    30.19F
HARRISON       SUNNY     47  26  44 W9        30.12F
BENTONVILLE    MOSUNNY   45  26  47 W10       30.16F
ROGERS         MOSUNNY   44  25  47 W10       30.14F
SILOAM SPGS    SUNNY     46  26  45 NW8       30.16
HIGHFILL       PTSUNNY   47  28  47 W15       30.15F
SPRINGDALE     PTSUNNY   46  27  46 W8        30.16F
$$

ARZ004-005-016-152100-
NORTH CENTRAL ARKANSAS

CITY           SKY/WX    TMP DP  RH WIND       PRES   REMARKS
BATESVILLE     MOSUNNY   52  28  39 SW10      30.14F
FLIPPIN        SUNNY     49  26  41 W14G20    30.13F
MTN HOME       SUNNY     47  28  47 VRB5      30.12
$$

ARZ040-041-152100-
WEST CENTRAL ARKANSAS

CITY           SKY/WX    TMP DP  RH WIND       PRES   REMARKS
MENA           SUNNY     54  30  40 W8        30.18F
MOUNT IDA      SUNNY     53  30  41 W5        30.15F
$$

ARZ009-017-025-026-028-152100-
NORTHEAST ARKANSAS

CITY           SKY/WX    TMP DP  RH WIND       PRES   REMARKS
JONESBORO      SUNNY     48  31  51 SW14      30.15F
NEWPORT        SUNNY     51  29  42 W10       30.15F
WALNUT RIDGE   SUNNY     49  28  44 SW9G18    30.13F
BLYTHEVILLE    SUNNY     48  28  46 SW9G20    30.15F
NW BLYTHEVILLE SUNNY     48  28  46 SW9G17    30.15F
$$

ARZ022-023-033-042-044-152100-
CENTRAL ARKANSAS

CITY           SKY/WX    TMP DP  RH WIND       PRES   REMARKS
LITTLE ROCK    MOSUNNY   52  29  41 W10       30.17F
N LITTLE ROCK    N/A     52  32  46 SW5       30.20F
JACKSONVILLE   SUNNY     53  29  39 SW14      30.16F
SEARCY         SUNNY     52  30  43 W6        30.17S
HOT SPRINGS    SUNNY     53  30  41 VRB5      30.18F
RUSSELLVILLE   SUNNY     51  29  42 W14       30.16F
CLINTON        FAIR      52  28  40 SW9       30.14S
$$

ARZ036-152100-
EAST ARKANSAS

CITY           SKY/WX    TMP DP  RH WIND       PRES   REMARKS
WEST MEMPHIS   SUNNY     47  27  45 VRB7      30.17F
$$

ARZ050-053-066-070-073-152100-
SOUTHWEST ARKANSAS

CITY           SKY/WX    TMP DP  RH WIND       PRES   REMARKS
ARKADELPHIA    FAIR      53  30  41 SW8       30.20F
CAMDEN         MOSUNNY   55  25  30 SW5       30.21F
TEXARKANA      SUNNY     52  30  43 VRB5      30.21F
EL DORADO      MOSUNNY   52  30  43 VRB3      30.21F
DE QUEEN       MOSUNNY   55  33  43 W9        30.17F
$$

ARZ056-057-069-152100-
SOUTHEAST ARKANSAS

CITY           SKY/WX    TMP DP  RH WIND       PRES   REMARKS
PINE BLUFF     MOSUNNY   50  27  40 S7        30.20F
STUTTGART      SUNNY     50  28  42 S13       30.19F
MONTICELLO     MOSUNNY   50  26  39 VRB3      30.22F

$$






USA.gov is the U.S. government's official web portal to all federal, state and local government web resources and services.